Rockford, IL

2:51 PM CDT on April 21, 2018 (GMT -0500)
Greater Rockford

Weather History for KRFD - May, 2014

Change the Weather History Date:

Friday, May 16, 2014

  Actual Average Record
Temperature  
Mean Temperature 43 °F 60 °F  
Max Temperature 51 °F 72 °F 90 °F (1992)
Min Temperature 35 °F 48 °F 29 °F (1997)
Degree Days  
Heating Degree Days 22 6  
Month to date heating degree days 155 132  
Since 1 July heating degree days 7626 6472  
Cooling Degree Days 0 1  
Month to date cooling degree days 20 14  
Year to date cooling degree days 20 22  
Moisture  
Dew Point 35 °F    
Average Humidity 71    
Maximum Humidity 92    
Minimum Humidity 50    
Precipitation  
Precipitation 0.20 in 0.13 in 2.54 in (1974)
Month to date precipitation 1.83 1.89  
Year to date precipitation 9.47 10.34  
Snow  
Snow T in 0.00 in T in (2014)
Month to date snowfall T 0.0  
Since 1 July snowfall 56.9 36.7  
Snow Depth 0.00 in    
Sea Level Pressure  
Sea Level Pressure 30.07 in    
Wind  
Wind Speed 5 mph (ENE)    
Max Wind Speed 23 mph    
Max Gust Speed 28 mph    
Visibility 9 miles    
Events Rain , Snow    
T = Trace of Precipitation, MM = Missing Value Source: NWS Daily Summary

Daily Weather History Graph

Daily Weather History Graph

Search for Another Location

Airport or City:

Astronomy

May. 16, 2014 Rise Set
Actual Time 5:34 AM CDT 8:11 PM CDT
Civil Twilight 5:02 AM CDT 8:44 PM CDT
Nautical Twilight 4:22 AM CDT 9:24 PM CDT
Astronomical Twilight 3:36 AM CDT 10:10 PM CDT
Moon 10:18 PM CDT (5/16) 7:16 AM CDT (5/16)
Length of Visible Light 15h 41m
Length of Day
14h 37m
Waning Gibbous, 95% of the Moon is Illuminated
May 16
Waning Gibbous
May 21
Last Quarter
May 28
New
Jun 5
First Quarter
Jun 12
Full

Hourly Weather History & Observations

Time (CDT) Temp. Windchill Dew Point Humidity Pressure Visibility Wind Dir Wind Speed Gust Speed Precip Events Conditions
12:54 AM 42.1 °F 37.7 °F 35.1 °F 76% 30.06 in 10.0 mi East 6.9 mph - 0.00 in Rain Light Rain
1:54 AM 41.0 °F 34.7 °F 34.0 °F 76% 30.05 in 10.0 mi East 10.4 mph - 0.00 in Rain Light Rain
2:32 AM 39.9 °F 33.4 °F 34.0 °F 79% 30.03 in 10.0 mi East 10.4 mph - 0.00 in Rain Light Rain
2:43 AM 39.9 °F 32.9 °F 34.0 °F 79% 30.03 in 10.0 mi East 11.5 mph - 0.00 in Rain Light Rain
2:54 AM 39.9 °F 33.9 °F 34.0 °F 79% 30.04 in 10.0 mi East 9.2 mph - 0.00 in Rain Light Rain
3:54 AM 39.9 °F 35.8 °F 34.0 °F 79% 30.04 in 10.0 mi East 5.8 mph - 0.00 in Rain Light Rain
4:54 AM 37.9 °F 32.7 °F 34.0 °F 86% 30.04 in 10.0 mi East 6.9 mph - 0.02 in Rain Light Rain
5:54 AM 37.9 °F 32.7 °F 34.0 °F 86% 30.05 in 10.0 mi NE 6.9 mph - 0.00 in Rain Light Rain
6:08 AM 37.9 °F 32.1 °F 34.0 °F 86% 30.05 in 10.0 mi ENE 8.1 mph - 0.01 in Rain Light Rain
6:44 AM 37.0 °F 31.6 °F 34.0 °F 89% 30.06 in 5.0 mi ENE 6.9 mph - 0.04 in Rain Light Rain
6:54 AM 37.0 °F 31.0 °F 33.1 °F 86% 30.07 in 5.0 mi NE 8.1 mph - 0.06 in Rain Light Rain
7:54 AM 35.1 °F 31.0 °F 32.0 °F 89% 30.08 in 3.0 mi East 4.6 mph - 0.08 in Snow Light Snow
8:25 AM 35.1 °F 29.3 °F 33.1 °F 92% 30.07 in 5.0 mi East 6.9 mph - 0.02 in Rain , Snow Light Rain
8:41 AM 36.0 °F 29.0 °F 33.1 °F 89% 30.07 in 7.0 mi East 9.2 mph - 0.02 in Rain Light Rain
8:54 AM 37.0 °F 30.4 °F 34.0 °F 89% 30.09 in 7.0 mi East 9.2 mph - 0.02 in Rain Light Rain
9:22 AM 37.9 °F 32.7 °F 35.1 °F 89% 30.08 in 9.0 mi East 6.9 mph - 0.00 in Rain Light Rain
9:54 AM 37.9 °F 33.5 °F 35.1 °F 89% 30.09 in 10.0 mi East 5.8 mph - 0.00 in Rain Light Rain
10:24 AM 39.0 °F 34.0 °F 35.1 °F 86% 30.08 in 10.0 mi East 6.9 mph - 0.00 in   Overcast
10:54 AM 41.0 °F 38.0 °F 36.0 °F 82% 30.09 in 10.0 mi NE 4.6 mph - 0.00 in   Overcast
11:36 AM 44.1 °F 42.5 °F 37.0 °F 76% 30.07 in 10.0 mi Variable 3.5 mph - N/A   Overcast
11:54 AM 46.0 °F 44.8 °F 37.9 °F 73% 30.09 in 10.0 mi Variable 3.5 mph - N/A   Overcast
12:40 PM 46.9 °F - 37.0 °F 68% 30.07 in 10.0 mi Calm Calm - N/A   Overcast
12:54 PM 48.0 °F - 36.0 °F 63% 30.08 in 10.0 mi Calm Calm - N/A   Overcast
1:19 PM 48.9 °F - 36.0 °F 61% 30.06 in 10.0 mi East 3.5 mph - N/A   Overcast
1:54 PM 48.0 °F - 34.0 °F 58% 30.07 in 10.0 mi North 8.1 mph - 0.00 in Rain Light Rain
2:54 PM 50.0 °F - 35.1 °F 57% 30.07 in 10.0 mi NNW 5.8 mph - 0.00 in   Overcast
3:54 PM 50.0 °F - 35.1 °F 57% 30.07 in 10.0 mi Calm Calm - 0.00 in   Overcast
4:54 PM 50.0 °F - 32.0 °F 50% 30.07 in 10.0 mi NNW 8.1 mph - N/A   Overcast
5:54 PM 48.9 °F - 32.0 °F 52% 30.08 in 10.0 mi NNW 5.8 mph - N/A   Overcast
6:54 PM 48.9 °F - 35.1 °F 59% 30.08 in 10.0 mi West 5.8 mph - N/A   Overcast
7:54 PM 48.0 °F - 36.0 °F 63% 30.09 in 10.0 mi WSW 3.5 mph - N/A   Overcast
8:20 PM 45.0 °F 38.9 °F 34.0 °F 65% 30.10 in 7.0 mi West 12.7 mph 27.6 mph 0.00 in Rain Rain
8:25 PM 44.1 °F - 34.0 °F 68% 30.09 in 10.0 mi Calm Calm - 0.01 in Rain Light Rain
8:54 PM 44.1 °F 41.5 °F 36.0 °F 73% 30.10 in 10.0 mi SSE 4.6 mph - 0.02 in   Overcast
9:54 PM 44.1 °F 42.5 °F 37.0 °F 76% 30.12 in 10.0 mi SW 3.5 mph - N/A   Overcast
10:54 PM 44.1 °F - 39.0 °F 82% 30.12 in 10.0 mi Calm Calm - N/A   Overcast
11:54 PM 42.1 °F 40.2 °F 37.9 °F 85% 30.12 in 10.0 mi South 3.5 mph - N/A   Overcast